OK9CPU-9 Weather Reports


time (UTC)temp
C
wind
direction
speed
KPH
gust
KPH
rain 1hr
cm
rain 24hr
cm
rain mn
cm
humidity
%
barometer
mb
20260505124714 35 0.0 0.0 0.00 0.00 0.00 20 1007.1
20260505123038 35 0.0 0.0 0.00 0.00 0.00 20 1007.5
20260505091145 36 0.0 0.0 0.00 0.00 0.00 17 1009.1
20260505085715 35 0.0 0.0 0.00 0.00 0.00 16 1009.3
20260505085510 35 0.0 0.0 0.00 0.00 0.00 16 1009.3
20260505083828 33 0.0 0.0 0.00 0.00 0.00 17 1009.3
20260505080525 31 0.0 0.0 0.00 0.00 0.00 17 1009.5
20260505073215 26 0.0 0.0 0.00 0.00 0.00 21 1009.7
20260505071540 26 0.0 0.0 0.00 0.00 0.00 20 1009.8
20260505064230 27 0.0 0.0 0.00 0.00 0.00 18 1009.9
20260505062555 26 0.0 0.0 0.00 0.00 0.00 18 1010.1
20260505060913 25 0.0 0.0 0.00 0.00 0.00 18 1009.9
20260505051927 15 0.0 0.0 0.00 0.00 0.00 24 1009.9
20260505050252 12 0.0 0.0 0.00 0.00 0.00 28 1009.9
20260505041315 11 0.0 0.0 0.00 0.00 0.00 29 1010.0
20260505033957 11 0.0 0.0 0.00 0.00 0.00 29 1009.9
20260505032330 11 0.0 0.0 0.00 0.00 0.00 29 1010.0
20260505030647 11 0.0 0.0 0.00 0.00 0.00 29 1010.0
20260505025012 12 0.0 0.0 0.00 0.00 0.00 29 1010.1
20260505023337 12 0.0 0.0 0.00 0.00 0.00 29 1010.3
20260505020027 13 0.0 0.0 0.00 0.00 0.00 28 1010.4
20260505014352 13 0.0 0.0 0.00 0.00 0.00 28 1010.5
20260505012717 13 0.0 0.0 0.00 0.00 0.00 28 1010.5
20260505011042 13 0.0 0.0 0.00 0.00 0.00 29 1010.5
20260505005407 13 0.0 0.0 0.00 0.00 0.00 29 1010.6
20260505003732 13 0.0 0.0 0.00 0.00 0.00 29 1010.7
20260505002057 13 0.0 0.0 0.00 0.00 0.00 29 1010.7
20260505000422 13 0.0 0.0 0.00 0.00 0.00 29 1010.9
20260504234747 14 0.0 0.0 0.00 0.00 0.00 29 1011.1
20260504233112 14 0.0 0.0 0.00 0.00 0.00 29 1011.2
20260504231437 14 0.0 0.0 0.00 0.00 0.00 29 1011.4
20260504225809 14 0.0 0.0 0.00 0.00 0.00 29 1011.5
20260504224127 14 0.0 0.0 0.00 0.00 0.00 30 1011.7
20260504222452 15 0.0 0.0 0.00 0.00 0.00 30 1011.9
20260504220824 15 0.0 0.0 0.00 0.00 0.00 30 1011.9
20260504215142 15 0.0 0.0 0.00 0.00 0.00 30 1012.0
20260504213507 15 0.0 0.0 0.00 0.00 0.00 30 1012.2
20260504211832 16 0.0 0.0 0.00 0.00 0.00 30 1012.3
20260504210204 16 0.0 0.0 0.00 0.00 0.00 30 1012.4
20260504201211 17 0.0 0.0 0.00 0.00 0.00 30 1012.5
20260504195536 17 0.0 0.0 0.00 0.00 0.00 30 1012.5
20260504193901 17 0.0 0.0 0.00 0.00 0.00 31 1012.5
20260504192226 18 0.0 0.0 0.00 0.00 0.00 31 1012.5
20260504190551 18 0.0 0.0 0.00 0.00 0.00 31 1012.5
20260504184916 19 0.0 0.0 0.00 0.00 0.00 31 1012.5
20260504183249 20 0.0 0.0 0.00 0.00 0.00 31 1012.4
20260504181606 20 0.0 0.0 0.00 0.00 0.00 30 1012.3
20260504175931 21 0.0 0.0 0.00 0.00 0.00 30 1012.2
20260504174304 21 0.0 0.0 0.00 0.00 0.00 30 1012.2
20260504172621 22 0.0 0.0 0.00 0.00 0.00 29 1012.1
20260504170946 23 0.0 0.0 0.00 0.00 0.00 29 1012.0